Location: Ash Swamp
(41.5170°N, 74.6157°W)
Time: 02:37:42
(UTC+00:00)

Cosmos 2181 Rocket - Pass Details

Date: 14 July 2020
Orbit: 951 x 1016 km, 82.9° (Epoch: 14 August)

Event Time Altitude Azimuth Distance (km) Brightness Sun altitude
Rises 01:01:52 0° 358° (N) 3,705 7.6 -5.6°
Reaches altitude 10° 01:04:34 10° 5° (N) 2,742 6.8 -6.0°
Maximum altitude 01:10:30 43° 76° (ENE) 1,328 4.5 -6.9°
Drops below altitude 10° 01:16:20 10° 148° (SSE) 2,687 5.7 -7.7°
Enters shadow 01:17:05 - 150° (SSE) 2,951 5.9 -7.8°
